Weather in Khor Fakkan

United Arab Emirates     25°20′57″N   56°21′00″E
temp.,
°C
wind,
m/s
gust,
m/s
humid.,
%
clouds,
%
prec.,
mm/h
press.,
hPa
HPBL,
m
23 june, wed
wed2301:00+30ene22430 0.0 100311
04:00+27e22730 0.0 100312
07:00+28sse33790 0.0 1005223
10:00+38ese32220 0.0 10051108
13:00+40e54230 0.0 10033001
16:00+37e44280 0.0 1002591
19:00+36sse22220 0.0 100225
22:00+32ssw11360 0.0 100315
24 june, thu
thu2401:00+32n22240 0.0 100212
04:00+31nw11250 0.0 100211
07:00+30s33590 0.0 1004181
10:00+39ssw11140 0.0 10041241
13:00+42ese22110 0.0 10023510
16:00+41ene44160 0.0 10012867
19:00+37s11210 0.0 100216
22:00+35wsw22230 0.0 100211
25 june, fri
fri2501:00+32ne11310 0.0 100212
04:00+30e11370 0.0 100211
07:00+34w23200 0.0 1003165
10:00+40wsw33120 0.0 10021165
13:00+43wnw23110 0.0 10013141
16:00+40nw34200 0.0 10001578
19:00+36w22190 0.0 100052
22:00+34w22200 0.0 100112
26 june, sat
sat2601:00+32n22210 0.0 100114
04:00+30nw11230 0.0 100111
07:00+35ssw22120 0.0 100187
10:00+41nnw1170 0.0 10012207
13:00+42ene24110 0.0 10002733
16:00+40n23150 0.0 9992270
19:00+36se11190 0.0 100032
22:00+34s22240 0.0 100111
27 june, sun
sun2701:00+31se11280 0.0 100011
04:00+27ene11620 0.0 100212
07:00+31sse22460 0.0 1004134
10:00+38ese32220 0.0 10041272
13:00+38e54330 0.0 10031347
16:00+36e43360 0.0 1002634
19:00+32ese33480 0.0 1003286
22:00+30se22480 0.0 100449